Temperature
23 23 22 21 20 21 24 26 26 26 26 26 26 26 24 23 23 23 22 23 22 22 21 21 21 21 20 20 20 20 20 20 20 20 20 20 20 20 20 20 20 20 20 20 20 20 20 20 20
24 23 22 21 22 23 25 26 26 26 26 26 26 25 24 23 23 23 23 22 22 22 21 21 21 21 21 20 20 20 21 20 20 20 20 20 20 20 20 20 20 20 20 20 20 20 20 20 20
24 23 23 21 22 23 25 26 26 27 27 27 26 25 24 24 24 24 24 22 22 22 21 21 21 21 21 21 21 21 20 20 20 20 20 20 20 20 20 20 19 19 19 19 20 20 20 20 20
24 24 23 22 25 24 25 26 26 27 27 27 25 24 23 24 24 24 24 23 22 22 21 21 21 21 21 21 21 20 20 20 20 20 20 20 20 20 20 20 20 20 19 19 19 19 19 19 19
25 24 22 22 24 25 25 26 27 27 27 26 25 23 23 23 24 24 24 23 23 22 22 21 21 21 21 21 20 20 20 20 20 20 20 20 20 19 20 20 20 20 20 19 19 19 19 19 19
26 22 21 23 24 26 26 27 28 27 26 26 25 23 23 24 24 24 23 23 23 22 22 21 21 21 21 20 20 20 20 20 20 20 20 19 19 19 19 19 19 19 19 19 19 19 19 19 19
24 20 23 24 24 26 28 28 28 27 26 26 25 22 23 23 23 23 23 22 22 22 22 21 21 21 20 20 20 20 20 20 20 20 19 19 19 19 19 19 19 19 19 19 19 19 19 19 19
25 20 23 23 25 26 28 29 29 28 27 26 26 23 23 24 23 23 22 22 22 21 21 21 21 20 20 20 20 20 19 19 19 19 19 19 19 19 19 19 19 19 19 19 19 19 19 19 18
24 21 23 24 25 26 28 28 29 28 27 26 26 26 26 24 23 22 22 21 21 21 21 21 21 21 20 20 20 19 19 19 19 19 19 19 20 20 19 19 19 19 19 19 19 18 18 18 18
24 21 24 25 26 27 27 28 28 27 26 25 25 25 25 24 23 22 22 22 21 21 21 21 21 21 21 20 20 20 20 19 19 19 19 20 20 20 19 19 19 19 19 19 18 18 18 18 18
24 23 24 25 27 27 27 28 28 27 25 26 26 26 25 24 23 22 22 22 22 22 21 21 21 21 21 20 20 20 20 20 20 20 20 19 19 19 19 19 19 19 19 18 18 18 18 18 18
24 24 25 26 27 27 27 28 28 27 28 29 29 28 26 24 23 23 23 22 22 22 21 21 21 21 21 20 20 20 20 20 20 20 19 19 19 19 19 19 19 19 18 18 18 18 18 18 18
24 24 26 27 27 27 27 27 28 28 28 28 27 27 26 25 24 24 23 23 22 22 21 21 21 20 20 20 20 20 20 20 20 19 19 19 18 18 18 18 18 18 18 18 18 18 18 18 18
24 24 24 25 26 27 27 26 26 27 27 27 26 26 25 25 24 23 23 22 22 22 21 21 20 20 20 20 20 20 19 19 19 19 18 18 18 18 18 18 18 18 18 18 18 18 18 18 18
24 23 23 25 25 26 26 26 25 26 26 25 25 24 24 24 24 24 23 23 23 22 21 21 20 20 20 19 19 19 19 18 18 18 18 18 18 18 18 18 18 18 18 18 18 18 18 18 18
23 23 23 23 23 24 25 24 24 24 24 23 23 23 23 23 23 23 23 23 22 22 21 21 20 20 19 19 19 19 18 18 18 18 18 17 17 17 17 17 17 18 17 17 17 18 18 18 18
21 22 23 23 23 23 23 23 21 23 22 22 22 22 22 22 22 22 22 22 22 22 21 21 20 20 20 19 19 19 18 18 18 18 17 17 17 17 17 17 17 17 17 17 17 17 17 18 18
23 23 23 23 23 22 22 21 21 22 21 21 21 22 22 22 22 22 22 22 22 21 21 21 20 20 20 20 19 19 19 18 18 18 18 17 17 17 17 17 17 17 17 17 17 17 17 17 18
23 23 23 23 24 22 22 21 21 21 21 21 21 21 21 21 21 21 22 22 21 21 21 21 21 21 21 20 20 20 19 19 18 18 17 17 17 16 16 16 16 17 17 17 17 17 17 17 17
22 23 23 23 23 23 22 22 21 20 21 21 21 20 20 20 21 21 21 21 22 22 22 22 22 21 21 20 20 19 19 18 18 17 17 16 16 16 16 16 16 16 16 16 16 16 16 16 17
23 23 24 23 22 21 22 21 21 20 20 20 20 20 20 21 22 22 22 22 22 22 22 22 22 21 20 20 19 19 18 18 17 17 16 16 16 16 16 16 16 16 16 16 16 16 16 16 16
23 24 23 23 21 20 21 19 20 19 18 18 19 19 20 21 22 22 23 23 23 23 22 22 21 21 20 20 19 19 18 17 17 16 16 16 15 15 16 16 16 16 16 16 16 15 15 15 15
24 23 22 21 20 19 19 19 18 18 19 18 18 19 20 21 22 22 23 23 23 22 22 21 21 20 20 20 19 18 18 17 16 16 15 15 15 15 15 15 15 15 15 15 15 15 15 15 15
23 20 19 16 16 18 20 19 18 17 19 19 19 19 20 21 22 22 23 22 22 22 22 21 21 20 20 19 19 18 17 16 16 15 15 15 15 15 15 15 14 14 14 14 14 14 14 14 14
21 19 17 18 16 17 18 18 17 19 19 19 19 21 21 21 21 22 22 22 22 22 22 21 21 20 20 19 19 18 17 16 15 15 15 14 14 14 14 14 14 14 14 14 14 14 14 14 14
21 19 18 18 17 17 17 18 18 19 20 20 20 20 20 20 20 21 21 21 21 22 22 21 21 20 20 19 19 18 17 16 15 14 14 14 14 14 13 13 13 13 13 13 13 13 14 14 14
20 19 18 16 17 16 17 18 18 18 18 18 17 17 17 17 18 19 20 20 21 21 21 21 21 20 20 19 18 17 16 16 15 14 14 14 13 13 13 13 12 12 13 13 13 13 13 13 13
21 17 15 16 17 17 17 17 16 15 14 14 13 13 13 15 16 17 18 18 19 19 20 20 20 19 19 18 18 17 16 15 15 14 14 14 13 13 13 13 12 12 12 13 13 13 13 13 13
20 18 15 14 15 15 16 16 14 12 12 12 12 12 12 12 13 15 15 16 17 17 18 18 18 18 18 17 17 16 16 15 15 14 14 13 13 13 13 12 12 12 12 12 13 13 13 13 13
20 19 16 17 16 14 14 14 13 12 12 11 11 11 11 12 12 13 14 15 15 16 16 16 16 16 16 16 16 16 15 15 14 14 14 13 13 13 12 12 12 12 12 12 12 13 13 13 13
Wind_Speed
5 6 3 2 3 4 3 3 2 2 2 2 3 5 7 5 3 2 2 10 16 15 18 21 21 20 19 18 18 17 17 16 15 15 14 13 12 11 10 10 8 8 8 8 7 7 6 6 7
4 5 2 2 4 4 3 3 3 1 4 4 5 5 6 3 3 6 6 9 15 14 16 18 20 20 19 18 18 18 18 17 16 14 13 12 11 10 10 9 8 7 6 6 6 6 6 5 5
4 4 3 4 4 3 2 2 1 1 2 2 4 5 5 3 5 7 7 12 13 11 15 18 21 20 19 19 18 17 17 16 15 13 12 11 10 9 8 7 7 6 6 5 5 5 5 5 5
3 3 4 5 2 3 4 3 2 1 0 4 4 5 4 2 6 7 13 15 15 12 15 19 22 20 19 18 17 16 15 15 14 12 11 10 9 9 8 7 7 6 6 6 6 6 6 6 6
3 4 6 4 4 5 5 4 3 2 1 2 4 5 3 5 7 12 16 16 16 13 13 18 22 20 18 17 16 15 14 13 12 11 10 9 8 8 8 8 8 8 7 7 7 7 7 7 8
4 5 5 3 6 6 5 2 2 2 2 3 4 4 3 2 7 13 14 13 12 13 12 15 21 19 18 16 15 14 14 13 11 10 9 9 8 8 8 8 9 9 9 9 9 10 10 10 10
4 4 3 0 4 5 5 4 2 3 3 4 5 5 1 3 5 10 10 10 9 10 9 10 15 17 17 15 14 13 13 12 12 11 10 9 9 9 9 10 10 11 11 11 12 12 12 12 12
4 5 3 1 2 4 6 5 2 5 4 4 4 7 6 7 10 10 10 9 9 10 9 6 9 11 12 13 14 13 13 12 12 11 11 10 10 11 11 12 12 13 13 14 14 14 14 14 13
4 4 1 4 3 4 5 5 4 3 6 4 3 4 5 16 16 13 11 8 9 11 9 7 7 8 10 11 13 14 14 13 13 12 12 12 11 10 10 11 13 14 15 16 16 17 16 16 15
4 3 6 5 4 4 5 4 2 4 4 3 4 6 14 19 16 15 14 13 13 14 13 10 9 7 9 11 11 11 12 12 12 12 11 11 10 11 12 12 15 16 16 17 18 19 18 17 14
4 5 5 5 4 4 4 4 1 7 5 8 9 13 19 18 14 14 13 12 13 12 13 12 11 8 8 7 8 8 9 10 11 12 13 12 10 10 11 10 12 14 15 14 16 17 15 14 13
3 6 5 7 4 3 3 3 1 5 7 6 11 20 20 19 17 16 15 13 10 10 13 12 12 10 8 7 6 6 6 7 9 12 13 10 7 7 8 9 11 12 12 12 13 11 13 14 15
3 5 5 7 9 6 4 3 4 5 1 9 15 17 17 18 15 12 11 10 9 11 12 10 11 12 10 7 6 6 7 8 11 11 12 12 8 9 8 8 10 11 12 11 9 9 9 9 11
4 6 8 9 7 4 4 3 3 5 6 12 15 14 13 14 13 10 10 10 10 11 11 9 11 11 9 9 8 6 7 8 9 10 13 14 12 9 9 9 8 9 12 13 11 9 9 9 8
4 6 8 5 4 4 2 4 4 4 10 12 11 10 9 9 9 10 12 12 11 10 9 9 9 8 8 9 8 6 6 8 7 10 14 15 15 12 9 10 10 9 13 13 11 10 8 9 8
3 4 5 8 7 6 3 7 5 3 10 10 8 7 7 5 5 6 8 8 8 8 8 8 8 8 9 9 8 6 7 7 8 10 12 13 14 14 10 10 11 10 11 8 9 9 8 9 9
6 4 4 8 7 4 2 4 4 4 8 8 7 6 5 4 4 4 6 8 8 9 8 7 8 10 11 11 8 7 5 6 7 7 7 8 10 11 8 8 9 9 7 8 9 8 7 8 9
2 2 3 6 7 6 5 3 3 5 7 6 5 5 5 6 5 5 6 7 8 8 9 8 9 9 8 6 4 3 4 5 4 4 5 7 7 8 6 6 8 7 7 7 8 9 8 8 8
2 2 3 4 4 5 5 3 1 2 4 6 7 7 6 6 4 4 6 8 8 8 9 9 8 7 5 3 2 3 4 4 3 4 5 6 7 7 5 6 7 6 7 8 8 8 8 7 6
3 1 1 4 5 3 2 2 2 2 4 6 8 8 7 6 4 5 6 7 8 9 9 9 8 6 5 3 2 2 2 2 3 3 5 6 7 7 6 7 7 7 7 9 9 8 6 5 5
2 3 2 3 5 5 3 5 4 3 4 3 3 6 7 8 9 8 8 8 8 9 9 7 7 5 5 4 1 1 1 2 3 3 4 4 6 8 7 8 8 8 8 8 9 8 9 8 6
1 4 3 1 2 4 3 3 6 4 5 3 3 6 9 8 8 8 9 9 10 9 6 4 4 4 3 4 3 3 2 3 4 3 4 7 7 8 8 9 9 9 8 9 10 9 8 9 8
4 2 3 2 2 2 4 1 8 4 4 5 6 8 9 10 11 11 11 11 9 6 4 3 3 3 3 4 5 4 4 4 3 4 6 7 7 8 9 9 9 9 8 10 10 9 9 9 9
3 6 6 6 5 2 2 1 6 4 6 6 6 9 11 11 10 11 9 7 6 3 3 4 5 4 4 5 6 6 5 5 4 5 6 6 7 7 9 9 8 9 8 9 10 9 10 9 10
6 7 6 7 6 4 4 2 8 8 7 7 9 10 9 7 7 8 8 8 7 6 6 6 6 6 6 6 6 6 6 5 5 6 6 7 7 7 9 9 9 8 8 9 8 9 9 9 10
2 8 6 3 4 6 4 4 7 5 5 4 4 4 5 6 6 7 8 7 7 7 6 6 7 7 7 7 6 5 5 4 4 5 5 6 6 7 9 9 9 9 8 7 7 6 7 7 8
4 3 6 6 3 2 6 7 8 10 12 10 10 11 11 11 11 10 9 8 7 6 4 4 5 6 6 7 6 6 6 6 6 5 5 5 6 6 8 9 9 8 8 7 6 5 6 6 7
2 8 6 5 4 4 6 4 6 13 14 13 14 14 14 14 14 14 14 13 12 10 9 7 5 5 5 5 6 6 7 7 6 5 6 6 6 6 8 9 9 8 8 7 5 5 5 5 5
3 4 5 4 4 5 5 4 5 6 7 9 11 11 12 13 14 14 14 13 13 13 12 11 9 7 6 6 7 7 7 7 6 6 6 6 5 5 6 8 8 9 8 7 5 5 4 4 3
1 4 6 2 3 5 4 3 5 6 7 9 10 11 11 11 11 11 12 13 15 15 13 12 10 9 8 8 8 9 9 7 8 8 7 6 5 5 6 6 7 8 7 6 4 3 1 1 2
Wind_Direction
182 153 132 113 76 46 27 348 318 334 23 27 89 100 114 124 174 203 97 136 138 151 161 165 163 160 158 156 152 149 147 145 143 141 138 137 137 137 138 139 141 142 139 136 134 132 130 131 133
158 145 137 98 79 59 333 322 345 311 152 133 85 83 79 73 66 114 130 141 145 150 158 163 164 162 163 162 160 157 155 153 151 149 146 145 145 147 149 151 153 156 155 153 153 152 152 153 154
181 162 115 84 80 157 260 304 293 341 164 138 89 72 91 140 142 155 155 144 142 148 156 165 167 167 168 169 167 165 163 160 158 156 156 157 159 161 164 167 171 176 178 179 180 179 179 183 187
138 70 57 67 31 241 238 266 250 215 263 55 96 82 69 31 155 155 143 146 148 153 158 169 170 173 174 175 173 172 169 167 166 165 168 172 177 181 184 188 194 200 206 210 213 214 214 216 219
67 76 54 35 317 277 250 238 197 209 167 63 96 99 63 4 105 131 144 151 155 157 160 173 173 176 178 180 180 178 176 176 176 178 182 188 196 202 206 208 212 217 222 228 234 237 239 241 243
47 60 68 11 317 303 296 271 140 146 123 118 109 100 47 71 121 142 148 151 155 159 160 174 176 179 181 184 186 186 184 184 186 190 196 204 213 222 228 230 232 235 238 242 247 250 253 255 256
93 85 117 268 309 317 320 328 154 147 158 179 137 112 65 143 140 137 134 130 138 153 155 170 177 182 185 189 193 194 193 193 196 201 207 214 224 233 241 246 249 252 254 257 259 261 265 265 263
115 99 100 215 270 295 309 322 256 160 165 125 123 148 194 179 140 124 114 115 137 156 158 159 171 180 187 193 200 203 205 206 209 213 219 226 234 241 247 250 253 260 264 266 267 269 270 271 269
87 77 178 214 204 276 307 326 333 124 120 127 141 171 171 136 136 131 125 129 155 170 171 168 167 173 181 190 204 209 213 216 219 224 230 235 238 246 255 258 259 262 266 270 272 272 271 271 270
93 147 228 219 203 249 295 292 300 111 122 133 81 75 125 138 147 151 156 164 175 183 187 186 183 177 179 194 202 207 212 217 221 224 232 240 240 242 251 256 259 262 265 268 269 269 267 266 261
155 203 252 266 244 242 274 295 308 141 188 202 176 151 147 151 158 165 172 177 186 187 190 195 195 188 186 194 194 203 209 213 219 222 226 234 243 249 253 254 258 260 264 267 267 267 262 255 251
214 251 249 279 295 291 251 278 283 198 225 200 159 153 156 165 173 178 180 185 182 185 198 198 198 198 198 200 202 206 212 219 224 228 228 228 238 245 248 250 252 253 256 255 256 255 254 252 250
244 271 277 270 290 264 244 227 241 257 244 119 132 150 164 174 180 185 185 183 181 193 201 200 199 204 203 204 212 215 221 227 233 236 234 228 232 242 245 249 250 250 250 252 254 254 254 252 251
262 275 285 284 276 258 215 223 199 250 138 130 146 161 170 178 179 177 182 189 193 200 202 198 200 204 203 211 219 225 229 234 239 241 242 236 234 239 242 246 246 246 246 247 248 249 253 257 253
298 312 323 322 323 286 222 282 229 214 144 142 153 159 165 175 177 185 191 195 199 201 200 199 200 196 204 218 226 232 237 237 239 244 247 246 242 242 243 246 249 248 247 247 249 251 248 252 251
26 24 345 315 330 316 181 251 283 164 143 142 145 149 154 159 168 179 182 185 188 188 193 201 203 193 203 213 220 224 230 233 239 244 248 249 248 246 247 249 252 250 248 246 248 250 246 245 243
25 24 328 312 327 341 140 253 323 113 131 133 137 141 139 119 95 118 151 165 169 173 174 181 194 199 206 211 215 220 225 233 240 244 248 253 255 253 246 252 258 258 254 251 252 248 239 244 242
301 331 317 308 325 27 57 21 38 78 106 125 137 142 139 133 129 131 134 142 145 150 160 174 191 201 200 198 205 228 246 250 251 253 260 270 271 272 264 263 266 264 261 260 253 253 245 243 244
240 233 269 283 329 45 59 61 63 114 141 170 182 176 161 147 145 149 146 145 147 160 174 185 193 196 172 159 182 213 241 251 261 264 269 281 285 286 278 275 275 269 262 261 258 255 254 250 238
196 164 280 298 349 42 51 8 305 255 226 215 200 184 164 157 170 186 179 180 182 188 193 195 199 191 186 179 180 192 218 254 270 287 295 289 289 290 289 276 274 271 268 265 259 249 249 247 216
124 160 206 277 345 19 38 343 319 313 328 311 205 178 173 183 192 203 204 207 208 210 207 202 200 196 198 195 151 83 16 336 315 305 300 295 298 292 284 279 274 272 265 264 258 247 244 249 236
226 237 229 232 39 316 22 288 291 314 323 305 226 184 189 201 208 214 216 220 223 227 220 209 201 195 194 178 183 195 220 260 264 276 284 296 296 295 292 284 279 274 268 262 259 250 240 241 245
210 65 61 62 143 40 23 152 289 331 302 264 227 208 207 213 215 218 220 224 231 234 224 209 193 194 181 176 182 187 212 232 264 283 292 298 301 299 297 294 289 281 273 265 259 254 244 238 239
94 66 48 47 66 69 308 222 285 266 243 251 235 223 219 221 226 232 238 242 251 244 220 200 192 197 182 182 181 185 206 233 272 294 302 306 307 304 302 304 297 290 281 272 264 257 249 243 241
72 73 20 1 8 268 285 234 253 255 245 232 231 233 235 241 248 258 266 266 261 248 229 209 197 202 195 192 192 196 206 221 247 273 289 302 307 308 308 310 304 298 287 278 269 260 252 243 239
181 136 155 213 237 279 320 242 255 282 304 289 284 320 354 343 331 320 313 304 289 269 245 221 209 211 204 204 207 206 210 219 239 254 267 282 290 295 301 307 305 301 295 286 273 263 255 245 237
144 154 161 141 174 263 287 288 310 355 1 11 23 30 21 11 6 358 352 347 338 328 307 264 236 234 225 219 214 218 222 227 241 255 261 273 284 298 309 312 311 309 304 296 280 263 257 246 235
120 138 98 120 163 249 285 297 323 339 347 15 33 36 31 28 26 22 18 13 10 7 2 357 333 289 269 248 235 235 233 234 240 250 264 274 289 303 318 323 320 315 312 306 293 274 261 243 230
29 73 90 108 156 174 249 277 15 354 11 39 38 32 27 26 25 22 20 17 17 17 15 8 355 335 313 286 263 252 248 243 243 247 256 265 281 300 316 320 321 320 320 318 309 288 265 237 218
248 131 136 118 262 193 207 245 38 40 35 39 33 25 21 19 15 13 12 13 14 13 8 3 354 342 323 300 277 260 253 246 244 247 251 256 272 291 306 316 321 325 329 332 332 336 359 119 120
Height
1502 1502 1502 1504 1507 1513 1511 1503 1497 1495 1493 1492 1493 1494 1496 1500 1503 1508 1502 1503 1508 1511 1515 1518 1522 1526 1529 1531 1534 1536 1538 1540 1542 1543 1545 1546 1547 1548 1549 1550 1550 1551 1551 1552 1552 1553 1553 1554 1554
1502 1501 1503 1504 1510 1523 1515 1500 1498 1494 1494 1494 1494 1496 1497 1499 1500 1500 1501 1504 1509 1513 1516 1520 1524 1527 1530 1532 1535 1537 1539 1541 1543 1544 1546 1547 1548 1549 1550 1551 1551 1552 1552 1553 1553 1554 1555 1555 1555
1501 1501 1503 1504 1512 1519 1511 1499 1496 1494 1494 1494 1495 1497 1499 1500 1501 1502 1504 1506 1511 1515 1518 1521 1525 1528 1530 1533 1535 1538 1540 1541 1543 1545 1547 1548 1549 1549 1550 1551 1552 1553 1553 1554 1554 1555 1555 1556 1556
1502 1502 1503 1508 1512 1507 1503 1497 1495 1495 1495 1495 1495 1498 1500 1502 1503 1505 1506 1509 1512 1516 1520 1523 1526 1529 1531 1534 1537 1539 1541 1543 1544 1546 1547 1548 1549 1550 1550 1551 1552 1553 1553 1554 1554 1555 1555 1556 1556
1502 1501 1508 1516 1511 1503 1497 1495 1495 1496 1495 1496 1496 1498 1501 1503 1505 1507 1509 1511 1514 1517 1521 1524 1527 1530 1533 1535 1538 1541 1543 1544 1546 1547 1548 1549 1549 1550 1550 1551 1552 1552 1553 1553 1554 1555 1555 1556 1556
1502 1502 1518 1522 1512 1501 1494 1493 1494 1495 1496 1497 1497 1499 1501 1503 1506 1508 1511 1513 1516 1519 1522 1525 1528 1531 1533 1536 1538 1541 1543 1545 1546 1547 1548 1549 1549 1550 1550 1550 1551 1552 1552 1553 1553 1554 1554 1555 1555
1504 1509 1516 1515 1514 1504 1496 1493 1494 1495 1497 1498 1498 1499 1501 1503 1506 1509 1512 1514 1517 1520 1523 1525 1528 1531 1534 1536 1539 1541 1543 1545 1546 1547 1548 1548 1549 1549 1550 1550 1550 1551 1551 1552 1552 1552 1553 1553 1553
1503 1508 1514 1516 1513 1506 1496 1494 1493 1494 1496 1498 1499 1499 1500 1502 1505 1508 1512 1514 1517 1520 1523 1526 1528 1531 1534 1536 1538 1540 1542 1544 1545 1546 1547 1548 1548 1548 1549 1549 1549 1550 1550 1550 1550 1550 1550 1551 1551
1504 1513 1518 1512 1509 1503 1497 1495 1494 1493 1495 1498 1499 1500 1500 1501 1504 1507 1511 1514 1517 1519 1522 1525 1528 1530 1533 1535 1537 1539 1541 1542 1543 1544 1545 1546 1547 1547 1548 1548 1548 1548 1548 1548 1548 1548 1548 1548 1548
1504 1515 1509 1502 1501 1499 1497 1495 1494 1494 1496 1497 1498 1499 1500 1501 1504 1506 1510 1513 1515 1518 1521 1524 1527 1529 1531 1533 1535 1537 1538 1540 1541 1542 1543 1544 1545 1545 1546 1546 1546 1546 1546 1546 1546 1546 1546 1545 1545
1503 1507 1501 1498 1497 1497 1496 1494 1493 1494 1496 1494 1494 1496 1499 1501 1504 1507 1510 1513 1516 1518 1521 1523 1526 1528 1530 1531 1533 1535 1536 1538 1539 1540 1541 1542 1542 1543 1543 1543 1543 1543 1543 1543 1543 1543 1543 1543 1542
1504 1501 1499 1496 1494 1495 1494 1493 1492 1492 1492 1491 1492 1494 1497 1500 1503 1506 1509 1513 1516 1518 1521 1523 1525 1527 1528 1530 1532 1533 1534 1535 1536 1537 1538 1539 1539 1539 1539 1540 1540 1540 1540 1539 1539 1539 1539 1539 1539
1502 1500 1497 1495 1493 1492 1492 1492 1491 1490 1490 1490 1493 1496 1498 1500 1503 1507 1511 1514 1516 1519 1521 1523 1525 1526 1528 1529 1530 1531 1532 1533 1534 1535 1535 1535 1535 1535 1535 1535 1535 1535 1535 1535 1535 1535 1535 1535 1535
1501 1499 1496 1493 1491 1491 1490 1490 1490 1488 1489 1490 1493 1496 1499 1501 1504 1507 1510 1513 1516 1518 1521 1523 1524 1526 1527 1528 1529 1530 1530 1531 1532 1532 1532 1532 1531 1531 1531 1531 1530 1530 1530 1530 1530 1529 1529 1529 1529
1500 1499 1495 1492 1491 1489 1490 1491 1488 1487 1488 1490 1494 1497 1500 1503 1505 1507 1510 1513 1516 1518 1520 1522 1524 1525 1526 1527 1527 1528 1528 1528 1528 1528 1528 1527 1527 1526 1526 1525 1524 1524 1524 1524 1524 1523 1523 1523 1523
1500 1504 1506 1496 1492 1489 1494 1499 1488 1487 1488 1491 1494 1498 1501 1504 1506 1508 1511 1513 1515 1517 1519 1521 1522 1523 1524 1525 1525 1525 1525 1525 1525 1524 1523 1522 1521 1520 1519 1518 1517 1517 1517 1517 1516 1516 1516 1516 1516
1509 1515 1512 1503 1493 1492 1494 1497 1490 1488 1490 1493 1496 1498 1501 1504 1506 1508 1510 1512 1513 1516 1518 1519 1521 1521 1522 1522 1522 1522 1522 1522 1521 1521 1520 1518 1517 1515 1513 1512 1510 1510 1509 1509 1509 1508 1508 1508 1508
1515 1514 1512 1508 1497 1495 1498 1498 1494 1492 1494 1496 1497 1499 1501 1503 1505 1507 1509 1511 1512 1514 1516 1518 1519 1519 1519 1519 1519 1519 1519 1519 1518 1517 1516 1514 1512 1510 1508 1506 1504 1503 1502 1502 1501 1501 1501 1501 1501
1508 1511 1512 1505 1497 1499 1500 1500 1497 1495 1495 1496 1496 1498 1500 1502 1505 1507 1509 1510 1511 1513 1514 1515 1516 1517 1517 1517 1518 1517 1517 1516 1515 1513 1511 1509 1506 1504 1502 1500 1498 1497 1495 1494 1494 1494 1493 1493 1494
1506 1510 1509 1504 1498 1499 1501 1501 1498 1496 1496 1495 1495 1496 1499 1502 1505 1507 1508 1509 1510 1511 1512 1513 1514 1515 1516 1516 1516 1515 1514 1512 1511 1509 1506 1504 1501 1498 1496 1493 1491 1490 1488 1487 1487 1487 1486 1485 1487
1505 1507 1506 1506 1503 1501 1503 1508 1503 1498 1496 1495 1495 1497 1499 1502 1504 1505 1506 1507 1508 1509 1510 1511 1512 1513 1514 1514 1513 1512 1510 1508 1506 1504 1501 1499 1496 1492 1489 1487 1484 1483 1481 1479 1479 1479 1479 1478 1479
1508 1500 1501 1503 1511 1517 1512 1525 1509 1503 1500 1497 1496 1496 1498 1501 1502 1503 1504 1505 1506 1507 1509 1509 1510 1511 1511 1511 1510 1508 1506 1504 1502 1498 1495 1493 1489 1486 1483 1480 1477 1475 1473 1472 1471 1471 1471 1471 1471
1501 1498 1503 1507 1511 1519 1518 1525 1517 1505 1502 1498 1496 1496 1497 1499 1500 1501 1502 1503 1504 1505 1506 1507 1507 1508 1508 1507 1506 1504 1502 1499 1497 1494 1490 1487 1484 1480 1477 1473 1470 1467 1466 1464 1463 1463 1463 1464 1464
1497 1504 1511 1517 1523 1531 1521 1526 1523 1510 1501 1497 1495 1495 1495 1497 1498 1499 1500 1501 1502 1503 1504 1504 1504 1504 1504 1503 1502 1500 1497 1495 1492 1489 1485 1481 1478 1474 1471 1467 1464 1461 1459 1457 1456 1456 1456 1456 1457
1502 1518 1537 1538 1543 1538 1523 1525 1522 1500 1495 1494 1492 1492 1493 1495 1497 1497 1498 1498 1499 1500 1500 1501 1501 1501 1500 1499 1498 1495 1493 1490 1487 1484 1480 1476 1472 1469 1465 1462 1458 1456 1454 1452 1451 1450 1450 1450 1450
1503 1515 1536 1545 1548 1539 1526 1525 1510 1496 1494 1493 1493 1493 1495 1496 1496 1496 1496 1496 1496 1496 1497 1497 1497 1497 1496 1495 1494 1491 1489 1486 1483 1480 1476 1472 1469 1465 1461 1458 1455 1452 1449 1448 1446 1446 1445 1445 1445
1507 1513 1515 1531 1535 1541 1533 1518 1504 1496 1496 1497 1497 1496 1497 1496 1495 1495 1493 1493 1493 1493 1493 1493 1493 1493 1493 1492 1490 1487 1485 1482 1479 1476 1473 1469 1466 1462 1459 1455 1452 1449 1447 1444 1443 1441 1440 1440 1440
1501 1510 1523 1532 1541 1545 1533 1525 1526 1515 1511 1507 1505 1503 1501 1498 1496 1494 1492 1490 1490 1489 1489 1489 1489 1489 1488 1487 1486 1483 1481 1479 1476 1473 1470 1466 1463 1460 1457 1454 1450 1447 1444 1442 1440 1438 1436 1436 1435
1506 1512 1523 1532 1534 1542 1543 1536 1527 1524 1519 1515 1512 1509 1506 1502 1498 1496 1494 1492 1490 1488 1487 1486 1486 1485 1484 1483 1481 1479 1477 1475 1473 1470 1467 1463 1460 1457 1454 1452 1449 1445 1442 1440 1437 1435 1433 1432 1432
1504 1508 1519 1528 1531 1536 1540 1539 1526 1524 1521 1518 1516 1512 1509 1505 1502 1499 1496 1492 1489 1488 1486 1485 1483 1481 1480 1478 1476 1474 1472 1471 1469 1466 1463 1460 1458 1455 1452 1450 1447 1444 1441 1438 1435 1433 1432 1431 1430